Weather in Wilmington

United States     39°44′45″N   75°32′50″W
temp.,
°C
wind,
m/s
gust,
m/s
humid.,
%
clouds,
%
prec.,
mm/h
press.,
hPa
HPBL,
m
7 may, fri
fri723:00+13n2459100 0.0 1014112
02:00+11nne2554100 0.0 1014170
05:00+9ne24585 0.0 1013130
08:00+12ene354236 0.0 1013317
11:00+17ese2336100 0.0 10121070
14:00+18s2237100 0.0 10102192
17:00+17s3343100 0.0 10081623
20:00+13ssw3775100 0.6 1010530
8 may, sat
sat823:00+10nnw2491100 1.2 1010266
02:00+9wnw4694100 6.4 1009319
05:00+8w2493100 1.6 1009349
08:00+9wnw478654 1.6 1011483
11:00+11nw676553 0.1 10111157
14:00+10nw6873100 0.3 10121124
17:00+11nw6106797 0.2 10141419
20:00+10n247392 0.3 1016389
9 may, sun
sun923:00+10sw137749 0.0 1018172
02:00+8wnw3977100 0.0 1019291
05:00+8w2477100 0.0 1019139
08:00+10wsw3468100 0.0 1020327
11:00+12sw5758100 0.1 10201286
14:00+9s2481100 0.6 1016382
17:00+8e3794100 3.0 1014294
20:00+12sse51389100 3.7 1009465
10 may, mon
mon1023:00+11e2596100 0.0 1007117
02:00+13w2590100 0.1 1006171
05:00+14wsw41590100 0.8 1006519
08:00+15wnw41288100 0.9 1008528
11:00+12nw4984100 0.0 1011548
14:00+17nw685682 0.0 10121121
17:00+17nw695443 0.0 10131481
20:00+14wnw23682 0.0 101464
11 may, tue
tue1123:00+12wnw411695 0.0 1015401
02:00+10nnw5106134 0.0 1016500
05:00+9nw4106787 0.0 1017642
08:00+8nw595947 0.0 1019682
11:00+13nw683833 0.0 10201684
14:00+15nw710355 0.0 10192269
17:00+16nw7113640 0.0 10183354
20:00+12wnw512485 0.0 10191275